Zurück zum Katalog

KUIPER-00436

AktivKommunikationLEO
NORAD 68939·PAYLOAD·🇺🇸 United States

Gestartet Apr 30, 2026 von Guiana Space Centre

Loading…

Nächste Überflüge (nächste 24 Stunden)

TLE

AktuellSource: CelesTrak SupGP

Epoche: Sep 14, 2026, 19:59 UTC

1 68939C 26098W   26257.83325232  .00008264  00000+0  10819-2 0  2577
2 68939  51.9002  21.7459 0000591 105.9437  74.6039 14.79919244    16

Verfolge KUIPER-00436 in Echtzeit mit AllMySat

Download on the App Store